110P/Hartley 3 (2001)

Japanese version
Home page
Total 6,336 html files since Dec. 4, 1995
Updated on December 30, 2007

---------------------------------------------------------------------

* Profile

* Orbital Elements

Epoch 2001 Apr. 1.0 TT = JDT 2452000.5  
T 2001 Mar. 21.41077 TT                                 Muraoka 
q   2.4783161            (2000.0)            P               Q
n   0.14333021     Peri.  167.93979     -0.10331390     -0.97575451
a   3.6161316      Node   287.75258     +0.89490758     -0.00651981
e   0.3146499      Incl.   11.68883     +0.43412747     -0.21877072
P   6.88
From 199 observations 1988-2000, mean residual 0".70.  Nongravitational
   parameters A1 = -2.64 +/- 0.28, A2 = -0.1052 +/- 0.0031.

* Finding Charts

* Magnitudes Graph

        m1 =  11.0 + 5 log d +  13.0 log r          [    ,-200]  (             - 2000 Sept. 2)
        m1 = -34   + 5 log d + 120   log r(t + 50)  [-200, -50]  (2000 Sept. 2 - 2001 Jan. 30)
        m1 =  -0.5 + 5 log d +  35   log r(t + 50)  [ -50,    ]  (2001 Jan. 30 -             )

---------------------------------------------------------------------

The orbital elements are calculated by Kenji Muraoka.
The charts are made with StellaNavigator Ver.2.0 for Windows (AstroArts / ASCII).
The magnitudes graphs are made with Comet for Windows.

---------------------------------------------------------------------

Copyright(C) 1995-2008 Seiichi Yoshida (comet@aerith.net). All rights reserved.